Weather in Mogilevka

Russia / Tver Oblast     57°04′47″N   33°47′17″E
temp.,
°C
wind,
m/s
gust,
m/s
humid.,
%
clouds,
%
prec.,
mm/h
press.,
hPa
HPBL,
m
9 march, tue
tue900:00−14nnw269888 0.0 1014178
03:00−16nnw239888 0.1 101675
06:00−18nnw259875 0.0 1017100
09:00−16nnw369271 0.0 1019289
12:00−13nnw357857 0.0 1020568
15:00−11nnw356949 0.0 1021891
18:00−13nnw258461 0.0 1022177
21:00−17nne229466 0.0 102426
10 march, wed
wed1000:00−19ene22970 0.0 102543
03:00−21e22980 0.0 102732
06:00−22ene22970 0.0 102844
09:00−21ene25900 0.0 1030214
12:00−15e35740 0.0 1031430
15:00−12e24660 0.0 1031613
18:00−14e12800 0.0 103120
21:00−18se11854 0.0 103220
11 march, thu
thu1100:00−19sse118449 0.0 103320
03:00−19s128525 0.0 103320
06:00−20s22860 0.0 103322
09:00−17s25760 0.0 1033173
12:00−11s36640 0.0 1032431
15:00−8s46620 0.0 1030705
18:00−11s38800 0.0 1029358
21:00−13s411870 0.0 1029312
12 march, fri
fri1200:00−14s411880 0.0 1028286
03:00−15s411930 0.0 1027271
06:00−15s4119553 0.0 1026279
09:00−14s5109166 0.0 1024319
12:00−8s611770 0.0 1022534
15:00−5sse713750 0.0 1020833
18:00−6s614800 0.0 1018897
21:00−7s7158849 0.0 1017918
13 march, sat
sat1300:00−7s71591100 0.3 1015924
03:00−7s71490100 0.9 1013895
06:00−7s61392100 0.9 1011736
09:00−5s51093100 1.4 1011499
12:000sw4795100 0.8 1011447
15:00+2sw499496 1.0 1011735
18:00+1ssw41190100 0.0 1011722
21:000ssw51290100 0.0 1010768